• In Czech Republic
  • List of Countries
  • For 7 days
  • Water Temperature
  • Satellite Maps
  • Weather Map
  • Weather Widgets
  • user-avatar
    Login

    Hourly Weather Shabanovo

    Today, 17 July, Tuesday

    Time Temperature Precipitation Wind Pressure Humidity
    00:00 +20°C° 0 mm 2 mps 749 mmHg 86%
    01:00 +19°C° 0 mm 2 mps 749 mmHg 88%
    02:00 +19°C° 0 mm 2 mps 749 mmHg 89%
    03:00 +19°C° 0 mm 2 mps 749 mmHg 89%
    04:00 +19°C° 0 mm 3 mps 749 mmHg 88%
    05:00 +19°C° 0 mm 3 mps 749 mmHg 88%
    06:00 +21°C° 0 mm 3 mps 749 mmHg 82%
    07:00 +22°C° 0 mm 4 mps 749 mmHg 75%
    08:00 +25°C° 0 mm 4 mps 749 mmHg 69%
    09:00 +26°C° 0 mm 4 mps 749 mmHg 64%
    10:00 +28°C° 0 mm 5 mps 749 mmHg 59%
    11:00 +29°C° 0 mm 5 mps 749 mmHg 54%
    12:00 +30°C° 0 mm 5 mps 748 mmHg 51%
    13:00 +30°C° 0 mm 5 mps 748 mmHg 48%
    14:00 +32°C° 0 mm 5 mps 748 mmHg 46%
    15:00 +30°C° 0 mm 5 mps 748 mmHg 47%
    16:00 +30°C° 0 mm 5 mps 748 mmHg 48%
    17:00 +29°C° 0 mm 4 mps 748 mmHg 49%
    18:00 +28°C° 0 mm 4 mps 748 mmHg 55%
    19:00 +26°C° 0 mm 3 mps 748 mmHg 60%
    20:00 +24°C° 0 mm 3 mps 748 mmHg 66%
    21:00 +22°C° 0 mm 3 mps 748 mmHg 67%
    22:00 +22°C° 0 mm 3 mps 748 mmHg 68%
    23:00 +21°C° 0 mm 3 mps 748 mmHg 69%

    Tomorrow, 18 July, Wednesday

    Time Temperature Precipitation Wind Pressure Humidity
    00:00 +20°C° 0 mm 3 mps 748 mmHg 71%
    01:00 +20°C° 0 mm 3 mps 748 mmHg 73%
    02:00 +19°C° 0 mm 3 mps 748 mmHg 74%
    03:00 +19°C° 0 mm 3 mps 748 mmHg 76%
    04:00 +19°C° 0 mm 3 mps 748 mmHg 77%
    05:00 +19°C° 0 mm 3 mps 748 mmHg 79%
    06:00 +20°C° 0 mm 3 mps 748 mmHg 74%
    07:00 +22°C° 0 mm 4 mps 748 mmHg 70%
    08:00 +23°C° 0 mm 4 mps 748 mmHg 65%
    09:00 +25°C° 0 mm 5 mps 747 mmHg 63%
    10:00 +26°C° 0 mm 5 mps 747 mmHg 60%
    11:00 +27°C° 0 mm 5 mps 747 mmHg 58%
    12:00 +26°C° 1 mm 5 mps 747 mmHg 64%
    13:00 +26°C° 1 mm 4 mps 747 mmHg 70%
    14:00 +25°C° 1 mm 4 mps 747 mmHg 76%
    15:00 +25°C° 0.4 mm 4 mps 747 mmHg 74%
    16:00 +25°C° 0.4 mm 4 mps 747 mmHg 72%
    17:00 +25°C° 0.4 mm 4 mps 747 mmHg 70%
    18:00 +24°C° 0.1 mm 3 mps 747 mmHg 74%
    19:00 +21°C° 0.1 mm 3 mps 747 mmHg 78%
    20:00 +20°C° 0.1 mm 3 mps 747 mmHg 82%
    21:00 +20°C° 0.1 mm 3 mps 747 mmHg 85%
    22:00 +19°C° 0.1 mm 3 mps 747 mmHg 88%
    23:00 +18°C° 0.1 mm 3 mps 747 mmHg 91%

    Day after tomorrow, 19 July, Thursday

    Time Temperature Precipitation Wind Pressure Humidity
    00:00 +18°C° 0.1 mm 3 mps 747 mmHg 92%
    01:00 +18°C° 0.1 mm 3 mps 747 mmHg 92%
    02:00 +18°C° 0.1 mm 3 mps 746 mmHg 93%
    03:00 +18°C° 0.1 mm 3 mps 746 mmHg 93%
    04:00 +18°C° 0.1 mm 3 mps 746 mmHg 94%
    05:00 +18°C° 0.1 mm 3 mps 746 mmHg 94%
    06:00 +19°C° 0.1 mm 3 mps 746 mmHg 94%
    07:00 +19°C° 0.1 mm 3 mps 746 mmHg 93%
    08:00 +20°C° 0.1 mm 3 mps 746 mmHg 92%
    09:00 +21°C° 0.1 mm 3 mps 746 mmHg 88%
    10:00 +21°C° 0.1 mm 4 mps 747 mmHg 84%
    11:00 +22°C° 0.1 mm 4 mps 747 mmHg 80%
    12:00 +23°C° 0.1 mm 4 mps 746 mmHg 75%
    13:00 +25°C° 0.1 mm 4 mps 746 mmHg 70%
    14:00 +26°C° 0.1 mm 4 mps 746 mmHg 65%
    15:00 +26°C° 0.1 mm 4 mps 746 mmHg 65%
    16:00 +27°C° 0.1 mm 4 mps 746 mmHg 64%
    17:00 +27°C° 0.1 mm 4 mps 746 mmHg 63%
    18:00 +25°C° 0.2 mm 3 mps 746 mmHg 71%
    19:00 +24°C° 0.2 mm 2 mps 746 mmHg 79%
    20:00 +21°C° 0.2 mm 2 mps 746 mmHg 87%
    21:00 +20°C° 0 mm 2 mps 746 mmHg 90%
    22:00 +20°C° 0 mm 2 mps 746 mmHg 94%
    23:00 +19°C° 0 mm 2 mps 745 mmHg 97%

    20 July, Friday

    Time Temperature Precipitation Wind Pressure Humidity
    00:00 +18°C° 0 mm 2 mps 745 mmHg 97%
    01:00 +18°C° 0 mm 2 mps 745 mmHg 97%
    02:00 +18°C° 0 mm 2 mps 745 mmHg 98%
    03:00 +18°C° 0.2 mm 2 mps 745 mmHg 98%
    04:00 +18°C° 0.2 mm 3 mps 745 mmHg 98%
    05:00 +19°C° 0.2 mm 3 mps 745 mmHg 97%
    06:00 +19°C° 0.4 mm 3 mps 745 mmHg 97%
    07:00 +19°C° 0.4 mm 3 mps 745 mmHg 96%
    08:00 +20°C° 0.4 mm 3 mps 745 mmHg 95%
    09:00 +21°C° 0.2 mm 3 mps 745 mmHg 93%
    10:00 +21°C° 0.2 mm 3 mps 745 mmHg 92%
    11:00 +22°C° 0.2 mm 3 mps 744 mmHg 90%
    12:00 +24°C° 0.7 mm 3 mps 744 mmHg 86%
    13:00 +25°C° 0.7 mm 3 mps 744 mmHg 82%
    14:00 +26°C° 0.7 mm 3 mps 744 mmHg 77%
    15:00 +26°C° 1.5 mm 3 mps 744 mmHg 81%
    16:00 +25°C° 1.5 mm 3 mps 744 mmHg 85%
    17:00 +24°C° 1.5 mm 2 mps 743 mmHg 89%
    18:00 +24°C° 0.4 mm 2 mps 743 mmHg 91%
    19:00 +23°C° 0.4 mm 2 mps 743 mmHg 93%
    20:00 +21°C° 0.4 mm 2 mps 743 mmHg 95%
    21:00 +20°C° 0 mm 2 mps 743 mmHg 96%
    22:00 +21°C° 0 mm 1 mps 743 mmHg 97%
    23:00 +20°C° 0 mm 1 mps 743 mmHg 98%

    21 July, Saturday

    Time Temperature Precipitation Wind Pressure Humidity
    00:00 +20°C° 0 mm 1 mps 743 mmHg 98%
    01:00 +20°C° 0 mm 1 mps 743 mmHg 98%
    02:00 +19°C° 0 mm 1 mps 743 mmHg 98%
    03:00 +20°C° 0 mm 1 mps 743 mmHg 98%
    04:00 +20°C° 0 mm 1 mps 743 mmHg 98%
    05:00 +20°C° 0 mm 1 mps 743 mmHg 98%
    06:00 +21°C° 0 mm 1 mps 743 mmHg 97%
    07:00 +19°C° 0 mm 0 mps 743 mmHg 95%
    08:00 +20°C° 0 mm 0 mps 743 mmHg 94%
    09:00 +20°C° 0 mm 0 mps 743 mmHg 91%
    10:00 +21°C° 0 mm 0 mps 743 mmHg 89%
    11:00 +23°C° 0 mm 1 mps 743 mmHg 86%
    12:00 +24°C° 0 mm 1 mps 743 mmHg 84%
    13:00 +24°C° 0 mm 1 mps 743 mmHg 81%
    14:00 +25°C° 0 mm 1 mps 743 mmHg 79%
    15:00 +25°C° 0 mm 1 mps 743 mmHg 79%
    16:00 +25°C° 0 mm 1 mps 743 mmHg 80%
    17:00 +25°C° 0 mm 1 mps 743 mmHg 80%
    18:00 +24°C° 0 mm 1 mps 743 mmHg 84%
    19:00 +23°C° 0 mm 1 mps 743 mmHg 88%
    20:00 +22°C° 0 mm 1 mps 743 mmHg 91%
    21:00 +22°C° 0 mm 1 mps 744 mmHg 93%
    22:00 +21°C° 0 mm 1 mps 744 mmHg 95%
    23:00 +20°C° 0 mm 1 mps 744 mmHg 97%

    22 July, Sunday

    Time Temperature Precipitation Wind Pressure Humidity
    00:00 +20°C° 0 mm 1 mps 744 mmHg 97%
    01:00 +20°C° 0 mm 1 mps 744 mmHg 98%
    02:00 +18°C° 0 mm 2 mps 745 mmHg 98%
    03:00 +18°C° 0 mm 2 mps 745 mmHg 98%
    04:00 +18°C° 0 mm 2 mps 745 mmHg 98%
    05:00 +18°C° 0 mm 2 mps 745 mmHg 98%
    06:00 +19°C° 0 mm 2 mps 746 mmHg 93%
    07:00 +20°C° 0 mm 2 mps 746 mmHg 88%
    08:00 +21°C° 0 mm 2 mps 746 mmHg 83%
    09:00 +23°C° 0 mm 2 mps 746 mmHg 75%
    10:00 +25°C° 0 mm 2 mps 746 mmHg 67%
    11:00 +27°C° 0 mm 2 mps 746 mmHg 58%
    12:00 +27°C° 0 mm 3 mps 746 mmHg 55%
    13:00 +28°C° 0 mm 3 mps 746 mmHg 52%
    14:00 +28°C° 0 mm 3 mps 746 mmHg 49%
    15:00 +28°C° 0 mm 3 mps 746 mmHg 50%
    16:00 +28°C° 0 mm 3 mps 746 mmHg 50%
    17:00 +28°C° 0 mm 3 mps 747 mmHg 51%
    18:00 +26°C° 0 mm 2 mps 747 mmHg 59%
    19:00 +24°C° 0 mm 2 mps 747 mmHg 66%
    20:00 +22°C° 0 mm 1 mps 747 mmHg 74%
    21:00 +21°C° 0 mm 1 mps 748 mmHg 74%
    22:00 +20°C° 0 mm 1 mps 748 mmHg 74%
    23:00 +19°C° 0 mm 1 mps 748 mmHg 75%
    Show more